Regional Weather Roundup
Issued by NWS

Home | Current Version | Previous Version | Text Only | Print | Product List | Glossary Off
Versions: 1 2 3 4 5 6 7 8 9 10 11 12 13 14 15 16 17 18 19 20 21 22 23 24 25 26 27 28 29 30 31 32 33 34 35 36 37 38 39 40 41 42 43 44 45 46 47 48 49 50

000
ASUS45 KBOI 011610
RWRID

IDAHO REGIONAL WEATHER ROUNDUP
NATIONAL WEATHER SERVICE BOISE ID
1000 AM MDT SAT AUG 01 2015

NOTE: "FAIR" INDICATES FEW OR NO CLOUDS BELOW 12000 FEET
WITH NO SIGNIFICANT WEATHER AND/OR OBSTRUCTIONS TO VISIBILITY

IDZ012-014-011700-
SOUTHWEST IDAHO


CITY           SKY/WX    TMP DP  RH WIND       PRES   REMARKS
BOISE          SUNNY     84  37  18 SE7       30.05R
CALDWELL       SUNNY     79  45  29 E5        30.04S
MOUNTAIN HOME  SUNNY     78  35  20 E9        30.06S
$$

IDZ016-017-011700-
SOUTHCENTRAL IDAHO


CITY           SKY/WX    TMP DP  RH WIND       PRES   REMARKS
BURLEY         SUNNY     74  43  32 E7        30.14F
JEROME         SUNNY     76  39  26 E10       30.15R
TWIN FALLS     SUNNY     82  29  14 E5        30.13S
$$

IDZ019>023-011700-
SOUTHEAST IDAHO


CITY           SKY/WX    TMP DP  RH WIND       PRES   REMARKS
IDAHO FALLS    SUNNY     71  45  39 NE6       30.21S
POCATELLO      SUNNY     72  40  31 NW3       30.20S
REXBURG        SUNNY     66  42  41 CALM      30.22F
$$

IDZ006-010-011-018-031-032-011700-
CENTRAL IDAHO MOUNTAINS


CITY           SKY/WX    TMP DP  RH WIND       PRES   REMARKS
MCCALL         SUNNY     68  45  43 CALM      30.19S
HAILEY         MOSUNNY   72  36  26 NW9       30.26F
STANLEY          N/A     58  31  35 CALM      30.35F
SALMON         SUNNY     64  43  45 CALM      30.19F
CHALLIS        SUNNY     67  37  33 NE5       30.25F
$$

IDZ002-004-006-007-026-011700-
NORTHERN IDAHO


CITY           SKY/WX    TMP DP  RH WIND       PRES   REMARKS
LEWISTON       SUNNY     77  42  28 VRB5      29.97S
LOWELL           N/A     68  47  46 CALM      30.04F
COEUR D`ALENE  SUNNY     77  43  29 SE6       29.98S
MULLAN PASS    SUNNY     75  24  15 NW3       30.23S
$$


USA.gov is the U.S. government's official web portal to all federal, state and local government web resources and services.